Regional Weather Roundup
Issued by NWS

Home | Current Version | Previous Version | Text Only | Print | Product List | Glossary On
Versions: 1 2 3 4 5 6 7 8 9 10 11 12 13 14 15 16 17 18 19 20 21 22 23 24 25 26 27 28 29 30 31 32 33 34 35 36 37 38 39 40 41 42 43 44 45 46 47 48 49 50
119
ASUS43 KFSD 271710
RWRSD

WEATHER ROUNDUP FOR SOUTH DAKOTA
NATIONAL WEATHER SERVICE SIOUX FALLS SD
1200 PM CDT MON MAR 27 2017

NOTE: "FAIR" INDICATES FEW OR NO CLOUDS BELOW 12,000 FEET WITH NO
SIGNIFICANT WEATHER AND/OR OBSTRUCTIONS TO VISIBILITY.


SDZ001>005-009-010-012>017-271800-
NORTHWEST AND NORTH CENTRAL SOUTH DAKOTA

CITY           SKY/WX    TMP DP  RH WIND       PRES   REMARKS
BUFFALO          N/A     55  35  47 SE14      29.82F
FAITH            N/A     49  41  74 MISG      29.92S
MOBRIDGE       SUNNY     53  38  56 S5        29.91F
$$

SDZ012>016-024>037-041>051-057-063-072>074-271800-
SOUTHWEST AND SOUTH CENTRAL SOUTH DAKOTA

CITY           SKY/WX    TMP DP  RH WIND       PRES   REMARKS
RAPID CTY ARPT PTSUNNY   42  39  89 SE9       29.89F
PIERRE         CLOUDY    51  39  63 SE8       29.93F
CUSTER         CLOUDY    47  32  56 S6        29.87S
ELLSWORTH AFB  MOSUNNY   47  43  84 CALM      29.89S
PHILIP           N/A    N/A N/A N/A MISG      29.91F
PINE RIDGE     SUNNY     58  35  42 S7        29.87F
SPEARFISH      FAIR      52  37  58 E8        29.87F
WINNER         FAIR      54  39  57 SE8       29.94F
$$

SDZ004>011-016>023-039-040-271800-
NORTHEAST SOUTH DAKOTA

CITY           SKY/WX    TMP DP  RH WIND       PRES   REMARKS
ABERDEEN       SUNNY     53  37  54 CALM      29.96F
WATERTOWN      MOSUNNY   49  36  61 NE5       29.96S
BROOKINGS      MOSUNNY   48  39  71 VRB3      29.97S
SISSETON         N/A     48  40  73 S6        29.97F
$$

SDZ017-020-022-023-036>040-048>070-271800-
SOUTHEAST SOUTH DAKOTA

CITY           SKY/WX    TMP DP  RH WIND       PRES   REMARKS
SIOUX FALLS    PTSUNNY   53  37  54 E6        29.98F
HURON          CLOUDY    51  40  65 SE5       29.97S
CHAMBERLAIN    CLOUDY    50  46  86 E6        29.96F
MITCHELL       MOSUNNY   50  39  66 CALM      29.99S
YANKTON        MOSUNNY   50  37  62 NE6       29.98F
$$

ABBREVIATIONS USED IN REMARKS
   TC - TEMPERATURE IN CELSIUS
  WCI - WIND CHILL INDEX
   HX - HEAT INDEX
  VSB - VISIBILITY





USA.gov is the U.S. government's official web portal to all federal, state and local government web resources and services.